EN

Hourly Weather Amaseno

Today, 20 January, Wednesday

Time Temperature Precipitation Wind Pressure Humidity
00:00 +8°C° 0.1 mm 1 mps 762 mmHg 81%
01:00 +8°C° 0.1 mm 1 mps 762 mmHg 84%
02:00 +8°C° 0 mm 1 mps 762 mmHg 84%
03:00 +8°C° 0 mm 1 mps 762 mmHg 85%
04:00 +8°C° 0 mm 1 mps 762 mmHg 85%
05:00 +8°C° 0 mm 1 mps 761 mmHg 85%
06:00 +8°C° 0 mm 1 mps 761 mmHg 84%
07:00 +8°C° 0 mm 1 mps 761 mmHg 84%
08:00 +9°C° 0 mm 1 mps 762 mmHg 82%
09:00 +10°C° 0 mm 1 mps 762 mmHg 80%
10:00 +9°C° 0 mm 2 mps 762 mmHg 77%
11:00 +10°C° 0 mm 2 mps 761 mmHg 78%
12:00 +10°C° 0 mm 2 mps 761 mmHg 78%
13:00 +10°C° 0 mm 2 mps 761 mmHg 79%
14:00 +10°C° 0.2 mm 2 mps 760 mmHg 81%
15:00 +10°C° 0.2 mm 2 mps 760 mmHg 82%
16:00 +10°C° 0.2 mm 2 mps 759 mmHg 84%
17:00 +10°C° 0.5 mm 3 mps 759 mmHg 86%
18:00 +9°C° 0.5 mm 3 mps 759 mmHg 88%
19:00 +9°C° 0.5 mm 3 mps 759 mmHg 90%
20:00 +10°C° 0.5 mm 3 mps 759 mmHg 90%
21:00 +10°C° 0.5 mm 3 mps 759 mmHg 90%
22:00 +10°C° 0.5 mm 3 mps 759 mmHg 90%
23:00 +10°C° 0.4 mm 3 mps 759 mmHg 91%

Tomorrow, 21 January, Thursday

Time Temperature Precipitation Wind Pressure Humidity
00:00 +10°C° 0.4 mm 3 mps 758 mmHg 91%
01:00 +10°C° 0.4 mm 3 mps 758 mmHg 91%
02:00 +10°C° 0.3 mm 3 mps 758 mmHg 91%
03:00 +10°C° 0.3 mm 3 mps 757 mmHg 91%
04:00 +10°C° 0.3 mm 3 mps 757 mmHg 91%
05:00 +10°C° 0.3 mm 3 mps 757 mmHg 91%
06:00 +10°C° 0.3 mm 3 mps 756 mmHg 91%
07:00 +10°C° 0.3 mm 4 mps 756 mmHg 91%
08:00 +11°C° 0.2 mm 4 mps 756 mmHg 89%
09:00 +11°C° 0.2 mm 4 mps 756 mmHg 88%
10:00 +12°C° 0.2 mm 4 mps 757 mmHg 87%
11:00 +12°C° 0.7 mm 4 mps 756 mmHg 87%
12:00 +12°C° 0.7 mm 4 mps 756 mmHg 87%
13:00 +12°C° 0.7 mm 4 mps 755 mmHg 86%
14:00 +12°C° 0.5 mm 4 mps 755 mmHg 87%
15:00 +12°C° 0.5 mm 4 mps 755 mmHg 87%
16:00 +12°C° 0.5 mm 4 mps 755 mmHg 88%
17:00 +12°C° 0.4 mm 3 mps 755 mmHg 88%
18:00 +11°C° 0.4 mm 3 mps 755 mmHg 89%
19:00 +12°C° 0.4 mm 2 mps 755 mmHg 90%
20:00 +12°C° 0.1 mm 2 mps 755 mmHg 90%
21:00 +12°C° 0.1 mm 2 mps 755 mmHg 90%
22:00 +12°C° 0.1 mm 2 mps 755 mmHg 89%
23:00 +12°C° 0.2 mm 2 mps 755 mmHg 90%

Day after tomorrow, 22 January, Friday

Time Temperature Precipitation Wind Pressure Humidity
00:00 +12°C° 0.2 mm 2 mps 755 mmHg 90%
01:00 +11°C° 0.2 mm 3 mps 754 mmHg 90%
02:00 +11°C° 0.4 mm 3 mps 754 mmHg 91%
03:00 +11°C° 0.4 mm 3 mps 753 mmHg 92%
04:00 +11°C° 0.4 mm 3 mps 753 mmHg 92%
05:00 +11°C° 0.7 mm 4 mps 753 mmHg 93%
06:00 +11°C° 0.7 mm 4 mps 753 mmHg 93%
07:00 +10°C° 0.7 mm 5 mps 753 mmHg 93%
08:00 +12°C° 0.7 mm 5 mps 752 mmHg 92%
09:00 +13°C° 0.7 mm 6 mps 752 mmHg 90%
10:00 +13°C° 0.7 mm 6 mps 752 mmHg 88%
11:00 +12°C° 0.8 mm 7 mps 751 mmHg 89%
12:00 +12°C° 0.8 mm 7 mps 751 mmHg 89%
13:00 +12°C° 0.8 mm 8 mps 750 mmHg 90%
14:00 +12°C° 1.6 mm 8 mps 750 mmHg 90%
15:00 +12°C° 1.6 mm 7 mps 749 mmHg 90%
16:00 +12°C° 1.6 mm 7 mps 748 mmHg 91%
17:00 +12°C° 2.8 mm 7 mps 748 mmHg 92%
18:00 +11°C° 2.8 mm 7 mps 748 mmHg 93%
19:00 +11°C° 2.8 mm 7 mps 748 mmHg 94%
20:00 +11°C° 3.9 mm 7 mps 747 mmHg 93%
21:00 +11°C° 3.9 mm 7 mps 747 mmHg 93%
22:00 +11°C° 3.9 mm 7 mps 747 mmHg 92%
23:00 +11°C° 1.7 mm 6 mps 746 mmHg 92%

23 January, Saturday

Time Temperature Precipitation Wind Pressure Humidity
00:00 +11°C° 1.7 mm 6 mps 746 mmHg 92%
01:00 +11°C° 1.7 mm 6 mps 745 mmHg 92%
02:00 +11°C° 3 mm 6 mps 744 mmHg 92%
03:00 +11°C° 3 mm 7 mps 744 mmHg 93%
04:00 +11°C° 3 mm 8 mps 743 mmHg 93%
05:00 +11°C° 2.2 mm 8 mps 743 mmHg 90%
06:00 +10°C° 2.2 mm 7 mps 743 mmHg 87%
07:00 +10°C° 2.2 mm 7 mps 743 mmHg 84%
08:00 +10°C° 0.2 mm 7 mps 744 mmHg 80%
09:00 +11°C° 0.2 mm 7 mps 744 mmHg 77%
10:00 +11°C° 0.2 mm 7 mps 744 mmHg 73%
11:00 +11°C° 0.3 mm 7 mps 744 mmHg 75%
12:00 +11°C° 0.3 mm 8 mps 744 mmHg 78%
13:00 +11°C° 0.3 mm 8 mps 745 mmHg 80%
14:00 +10°C° 1.1 mm 7 mps 744 mmHg 81%
15:00 +10°C° 1.1 mm 7 mps 744 mmHg 82%
16:00 +10°C° 1.1 mm 7 mps 743 mmHg 84%
17:00 +9°C° 1.4 mm 7 mps 743 mmHg 84%
18:00 +9°C° 1.4 mm 7 mps 744 mmHg 85%
19:00 +9°C° 1.4 mm 7 mps 744 mmHg 85%
20:00 +8°C° 1.6 mm 7 mps 744 mmHg 86%
21:00 +8°C° 1.6 mm 7 mps 744 mmHg 87%
22:00 +8°C° 1.6 mm 7 mps 744 mmHg 88%
23:00 +6°C° 0.8 mm 7 mps 744 mmHg 85%

24 January, Sunday

Time Temperature Precipitation Wind Pressure Humidity
00:00 +6°C° 0.8 mm 7 mps 744 mmHg 83%
01:00 +6°C° 0.8 mm 7 mps 744 mmHg 81%
02:00 +6°C° 0.4 mm 8 mps 745 mmHg 79%
03:00 +6°C° 0.4 mm 8 mps 745 mmHg 78%
04:00 +6°C° 0.4 mm 8 mps 745 mmHg 76%
05:00 +6°C° 0.1 mm 7 mps 745 mmHg 76%
06:00 +7°C° 0.1 mm 6 mps 746 mmHg 76%
07:00 +5°C° 0.1 mm 6 mps 746 mmHg 75%
08:00 +7°C° 0 mm 5 mps 747 mmHg 73%
09:00 +8°C° 0 mm 5 mps 747 mmHg 70%
10:00 +9°C° 0 mm 5 mps 748 mmHg 67%
11:00 +9°C° 0.1 mm 5 mps 747 mmHg 66%
12:00 +10°C° 0.1 mm 5 mps 747 mmHg 65%
13:00 +10°C° 0.1 mm 5 mps 747 mmHg 64%
14:00 +11°C° 0.3 mm 4 mps 747 mmHg 70%
15:00 +10°C° 0.3 mm 4 mps 746 mmHg 77%
16:00 +9°C° 0.3 mm 3 mps 745 mmHg 83%
17:00 +8°C° 3 mm 4 mps 744 mmHg 87%
18:00 +7°C° 3 mm 5 mps 743 mmHg 91%
19:00 +7°C° 3 mm 5 mps 743 mmHg 95%
20:00 +7°C° 6 mm 5 mps 742 mmHg 95%
21:00 +8°C° 6 mm 6 mps 741 mmHg 94%
22:00 +8°C° 6 mm 6 mps 740 mmHg 94%
23:00 +8°C° 1.5 mm 7 mps 739 mmHg 92%

25 January, Monday

Time Temperature Precipitation Wind Pressure Humidity
00:00 +6°C° 1.5 mm 8 mps 739 mmHg 91%
01:00 +6°C° 1.5 mm 8 mps 739 mmHg 89%
02:00 +5°C° 0.1 mm 8 mps 740 mmHg 89%
03:00 +5°C° 0.1 mm 7 mps 740 mmHg 88%
04:00 +4°C° 0.1 mm 7 mps 741 mmHg 87%
05:00 +4°C° 0.2 mm 6 mps 741 mmHg 86%
06:00 +4°C° 0.2 mm 6 mps 742 mmHg 86%
07:00 +3°C° 0.2 mm 6 mps 742 mmHg 85%
08:00 +4°C° 0.2 mm 6 mps 743 mmHg 81%
09:00 +5°C° 0.2 mm 6 mps 743 mmHg 77%
10:00 +7°C° 0.2 mm 5 mps 744 mmHg 72%
11:00 +7°C° 0 mm 6 mps 745 mmHg 70%
12:00 +8°C° 0 mm 6 mps 745 mmHg 68%
13:00 +8°C° 0 mm 7 mps 746 mmHg 66%
14:00 +8°C° 0 mm 6 mps 746 mmHg 67%
15:00 +7°C° 0 mm 6 mps 747 mmHg 68%
16:00 +7°C° 0 mm 5 mps 747 mmHg 69%
17:00 +6°C° 0 mm 5 mps 748 mmHg 71%
18:00 +5°C° 0 mm 4 mps 749 mmHg 74%
19:00 +4°C° 0 mm 3 mps 749 mmHg 77%
20:00 +3°C° 0 mm 3 mps 750 mmHg 76%
21:00 +4°C° 0 mm 2 mps 750 mmHg 75%
22:00 +4°C° 0 mm 2 mps 750 mmHg 74%
23:00 +4°C° 0 mm 2 mps 750 mmHg 74%
Show more